SCP
0 0 0 0 0 0 0 0 0 0 0 0 0 0 0 0 0 0 0 0 0 0 0 0 0 0 0 0 0 0 0 0 0 0 0 0 0 0 0 0 0 0 0 0
0 0 0 0 0 0 0 0 0 0 0 0 0 0 0 0 0 0 0 0 0 0 0 0 0 0 0 0 0 0 0 0 0 0 0 0 0 0 0 0 0 0 0 0
0 0 0 0 0 0 0 0 0 0 0 0 0 0 0 0 0 0 0 0 0 0 0 0 0 0 0 0 0 0 0 0 0 0 0 0 0 0 0 0 0 0 0 0
0 0 0 0 0 0 0 0 0 0 0 0 0 0 0 0 0 0 0 0 0 0 0 0 0 0 0 0 0 0 0 0 0 0 0 0 0 0 0 0 0 0 0 0
0 0 0 0 0 0 0 0 0 0 0 0 0 0 0 0 0 0 0 0 0 0 0 0 0 0 0 0 0 0 0 0 0 0 0 0 0 0 0 0 0 0 0 0
0 0 0 0 0 0 0 0 0 0 0 0 0 0 0 0 0 0 0 0 0 0 0 0 0 0 0 0 0 0 0 0 0 0 0 0 0 0 0 0 0 0 0 0
0 0 0 0 0 0 0 0 0 0 0 0 0 0 0 0 0 0 0 0 0 0 0 0 0 0 0 0 0 0 0 0 0 0 0 0 0 0 0 0 0 0 0 -0
0 0 0 0 0 0 0 0 0 0 0 0 0 0 0 0 0 0 0 0 0 0 0 0 0 0 0 0 0 0 0 0 0 0 0 0 0 0 0 0 0 0 -0 0
0 0 0 0 0 0 0 0 0 0 0 0 0 0 0 0 0 0 0 0 0 0 0 0 0 0 0 0 0 0 0 0 0 0 0 0 0 0 0 0 0 -0 -0 -0
0 0 0 0 0 0 0 0 0 0 0 0 0 0 0 0 0 0 0 0 0 0 0 0 0 0 0 0 0 0 0 0 0 0 0 0 0 0 0 0 0 -0 -0 -0
0 0 0 0 0 0 0 0 0 0 0 0 0 0 0 0 0 0 0 0 0 0 0 0 0 0 0 0 0 0 0 0 0 0 0 0 0 0 0 0 0 0 0 0
0 0 0 0 0 0 0 0 0 0 0 0 0 0 0 0 0 0 0 0 0 0 0 0 0 0 0 0 0 0 0 0 0 0 0 0 0 0 0 -0 -0 -0 -0 -0
0 0 0 0 0 0 0 0 0 0 0 0 0 0 0 0 0 0 0 0 0 0 0 0 0 0 0 0 0 0 0 0 0 0 0 0 0 0 0 0 0 -0 -0 -0
0 0 0 0 0 0 0 0 0 0 0 0 0 0 0 0 0 0 0 0 0 0 0 0 0 0 0 0 0 0 0 -0 0 0 0 0 0 0 0 0 0 0 0 0
0 0 0 0 0 0 0 0 0 0 0 0 0 0 0 0 0 0 0 0 0 0 0 0 0 0 0 0 0 0 0 0 0 0 0 0 0 0 0 0 0 0 0 0
0 0 0 0 0 0 0 0 0 0 0 0 0 0 0 0 0 0 0 0 0 0 0 0 0 0 0 -0 -0 0 -0 -0 -0 0 0 0 0 0 0 0 0 0 0 0
0 0 0 0 0 0 0 0 0 0 0 0 0 0 0 0 0 0 0 0 0 0 0 0 0 0 0 -0 -0 0 -0 0 -0 0 0 0 0 0 0 0 0 0 0 0
0 0 0 0 0 0 0 0 0 0 0 0 0 0 0 0 0 0 0 0 0 0 0 0 0 -0 0 -0 -0 -0 0 0 0 0 0 0 0 0 0 0 0 0 0 0
0 0 0 0 0 0 0 0 0 0 0 0 0 0 0 0 0 0 0 0 0 0 0 0 0 -0 0 -0 -0 -0 0 0 0 0 0 0 0 0 0 0 0 0 0 0
0 0 0 0 0 0 0 0 0 0 0 0 0 0 0 0 0 0 0 0 0 0 -0 -0 -0 -0 0 -0 -0 -0 -0 0 0 0 0 0 0 0 0 0 0 0 0 0
0 0 0 0 0 0 0 0 0 0 0 0 0 0 0 0 0 0 0 0 0 0 -0 -0 -0 -0 0 0 -0 -0 -0 0 0 0 0 0 0 0 0 0 0 0 0 0
0 0 0 0 0 0 0 0 0 0 0 0 0 0 0 0 0 0 0 0 0 0 -0 -0 -0 0 0 0 0 -0 -0 -0 -0 0 0 0 0 0 0 0 0 0 0 0
0 0 0 0 0 0 0 0 0 0 0 0 0 0 0 0 0 0 0 0 0 0 -0 -0 0 0 0 0 0 -0 -0 -0 0 0 0 0 0 0 0 0 0 0 0 0
0 0 0 0 0 0 0 0 0 0 0 0 0 0 0 0 0 0 0 0 0 -0 -0 -0 0 0 0 0 0 0 -0 0 0 0 0 0 0 0 0 0 0 0 0 0
0 0 0 0 0 0 0 0 0 0 0 0 0 0 0 0 0 0 0 0 0 -0 -0 -0 0 0 0 0 0 0 0 0 0 0 0 0 0 0 0 0 0 0 0 0
0 0 0 0 0 0 0 0 0 0 0 0 0 0 0 0 0 0 0 0 0 -0 -0 -0 0 0 0 -0 -0 -0 -0 0 0 0 0 0 0 0 0 0 0 0 0 0
0 0 0 0 0 0 0 0 0 0 0 0 0 0 0 0 0 0 0 0 0 -0 -0 -0 -0 0 0 0 -0 -0 0 0 0 0 0 0 0 0 0 0 0 0 0 0
Wind_Speed_500mb
19 17 16 23 29 23 35 42 23 44 39 40 35 36 40 23 17 19 28 32 38 44 52 56 58 58 58 57 58 59 63 66 70 72 72 75 74 71 69 67 67 69 72 72
10 2 8 22 34 36 43 46 46 52 52 41 28 6 12 11 18 26 30 35 41 50 54 56 58 59 58 58 60 62 65 68 74 80 79 79 80 75 74 72 69 70 72 70
9 3 14 23 36 29 22 26 24 27 22 11 12 19 24 25 24 27 31 37 47 50 51 53 56 57 59 60 65 67 73 75 80 75 77 87 90 79 73 72 67 67 65 65
9 16 13 7 12 11 20 27 23 34 35 31 30 25 28 25 23 25 33 44 48 48 50 52 53 54 57 67 67 73 80 78 80 80 91 95 92 93 75 83 63 63 60 60
7 9 30 25 7 1 4 15 17 28 29 28 19 16 31 12 11 24 36 42 45 46 49 51 53 55 66 70 72 71 80 76 87 86 97 96 92 100 79 59 62 53 56 56
3 8 11 11 8 6 4 19 8 11 22 28 9 21 21 5 24 35 38 41 45 47 48 49 53 57 61 67 78 74 75 89 91 94 86 91 91 74 70 61 60 61 53 52
18 12 18 19 9 7 7 18 11 15 26 16 17 24 28 26 31 34 39 42 43 42 45 48 53 55 65 68 74 78 86 91 91 87 85 87 73 64 56 57 48 46 47 44
9 12 17 21 19 10 24 20 18 20 22 24 27 28 27 28 30 34 37 39 38 42 45 51 51 59 63 75 77 82 87 90 85 80 85 78 63 56 48 46 45 42 41 45
20 11 8 27 35 35 31 39 42 33 31 26 26 25 24 30 31 33 35 37 38 41 49 50 50 58 65 70 85 87 89 90 82 81 78 73 67 61 49 45 44 43 43 45
11 17 38 46 41 48 44 47 45 38 32 26 25 21 23 25 28 30 33 37 39 44 47 51 53 58 64 78 77 89 91 85 89 86 78 72 69 61 51 49 47 43 43 46
43 41 48 46 32 40 47 40 41 37 29 25 23 21 21 23 25 28 32 34 40 44 48 53 54 64 62 75 78 81 83 88 85 84 81 75 67 68 53 43 41 49 53 59
31 51 54 63 62 56 54 45 39 34 25 26 26 23 24 22 24 27 31 37 40 43 47 51 56 62 68 76 81 80 87 88 87 81 78 78 72 61 49 39 38 41 47 53
64 66 72 73 67 55 49 50 39 35 29 24 24 24 25 26 24 29 31 35 40 43 44 44 54 62 69 77 77 79 82 78 77 76 75 70 64 55 48 43 36 35 35 28
54 59 66 57 55 50 41 35 31 32 31 28 25 25 26 25 26 25 30 36 42 40 41 43 49 59 71 76 72 80 77 72 72 68 62 54 55 43 34 39 50 52 27 29
36 41 52 59 53 47 38 30 36 34 28 27 25 23 22 25 23 26 30 38 40 37 35 41 48 64 70 68 70 78 73 72 67 58 51 41 37 36 39 47 50 53 45 49
38 35 37 38 39 33 26 27 28 25 27 25 23 20 22 22 22 27 30 32 37 40 39 42 49 57 64 69 71 74 70 67 60 52 49 40 34 34 38 43 43 49 53 49
43 42 31 30 31 26 22 21 23 21 24 24 19 22 23 18 22 24 28 31 33 36 36 34 44 55 60 63 65 65 63 65 57 50 47 46 41 41 47 48 50 51 47 43
36 44 39 34 25 14 19 20 22 24 22 21 23 23 19 18 21 25 30 33 33 34 31 36 43 51 56 59 58 57 56 56 53 48 43 40 41 42 45 47 48 53 55 52
38 43 47 37 22 11 9 14 20 19 22 24 23 20 18 18 18 23 27 29 31 37 40 38 38 50 51 54 51 52 54 51 51 42 40 38 36 41 43 47 53 52 51 48
45 41 44 36 33 23 18 16 20 23 24 21 21 19 19 16 16 19 22 22 26 37 37 37 32 44 48 46 43 46 49 45 44 42 39 38 39 43 42 44 48 46 45 44
44 46 45 43 34 35 24 22 23 24 22 19 17 16 15 13 13 17 18 19 29 36 35 34 27 44 41 41 43 41 44 46 40 39 37 38 41 39 41 42 41 39 40 42
47 46 49 46 36 27 28 28 26 25 23 17 13 11 14 14 14 15 16 24 30 34 34 34 30 33 32 35 39 35 36 39 39 33 36 32 32 32 32 31 35 39 42 44
46 50 52 46 42 32 35 36 31 28 24 18 14 11 16 14 13 16 14 21 28 31 31 31 28 26 24 27 33 36 28 32 35 34 34 29 27 26 26 27 29 32 36 39
43 52 53 43 40 36 45 45 37 30 24 22 19 16 18 14 11 16 17 22 26 28 26 27 27 23 19 24 25 31 30 26 27 27 28 30 30 30 29 30 31 30 31 32
45 48 50 45 43 42 42 47 39 33 29 27 24 19 24 22 13 15 18 20 23 26 23 22 22 21 17 15 18 21 28 27 25 26 22 22 25 28 27 28 26 24 25 28
49 50 50 46 44 41 37 48 51 40 32 30 25 19 22 20 13 16 18 19 20 21 19 19 20 20 16 13 14 17 19 23 25 23 23 22 18 20 21 20 22 23 20 20
54 51 47 48 41 31 28 41 53 49 38 32 24 18 18 21 16 16 17 17 17 16 15 14 15 15 15 12 11 11 12 14 17 20 19 18 17 18 17 16 17 18 16 17
Wind_Direction_500mb
271 274 257 264 260 226 225 239 252 270 282 285 302 313 307 301 278 273 287 298 305 308 312 312 312 312 311 310 311 312 309 309 308 306 304 302 298 295 292 287 282 279 277 271
283 212 255 269 269 250 245 256 263 266 278 287 292 317 313 294 288 290 297 307 310 314 315 314 313 313 311 310 310 310 309 308 308 304 304 304 303 297 292 287 284 281 275 270
278 317 291 267 254 248 232 235 250 255 286 348 291 309 298 301 292 295 303 310 315 314 312 311 312 311 310 309 309 309 310 308 308 309 306 308 307 299 296 289 285 280 274 267
285 305 263 17 263 262 267 265 248 261 278 292 299 297 286 283 282 299 310 315 314 312 311 311 312 311 311 314 312 307 309 308 312 310 312 310 304 303 285 289 287 278 273 267
272 253 298 284 95 153 242 303 283 250 271 292 305 303 292 227 271 308 312 312 311 311 311 312 313 313 313 315 313 308 311 312 311 313 313 310 308 306 294 281 288 280 272 266
211 256 270 17 99 133 178 290 98 202 309 310 276 290 323 307 307 311 314 314 313 314 313 313 313 314 313 311 315 315 317 320 317 319 315 317 316 305 305 296 288 280 277 270
232 258 273 271 183 159 263 331 345 321 319 282 259 289 302 302 306 309 312 313 314 313 310 309 315 316 314 316 319 322 322 323 320 323 321 321 315 309 301 289 292 281 276 270
201 219 271 158 145 218 316 302 296 292 287 264 261 280 286 295 304 309 310 314 314 313 311 317 318 318 319 321 326 324 324 321 325 328 328 324 318 309 305 292 287 283 276 273
207 225 349 205 264 285 285 288 292 289 291 261 266 272 285 300 307 308 312 313 315 314 316 318 321 321 321 321 330 326 327 323 330 332 332 330 319 314 297 289 282 282 281 278
295 234 268 279 279 281 286 281 291 283 277 260 260 262 279 296 304 308 314 317 321 318 318 320 323 323 326 333 325 333 326 330 333 332 330 328 328 320 303 289 284 284 283 282
271 281 272 276 292 304 305 300 295 286 266 251 251 268 284 299 307 313 316 320 320 319 319 319 325 329 329 335 332 334 335 335 334 334 329 328 326 322 318 299 293 286 282 282
269 301 313 303 308 306 297 294 291 274 255 260 267 277 295 304 311 316 317 318 319 320 319 321 330 329 331 337 339 340 336 333 336 332 334 333 326 324 328 311 296 295 286 281
284 300 299 300 298 295 283 285 277 269 257 254 267 283 299 307 312 314 319 321 322 320 320 325 325 332 343 340 342 344 340 341 337 341 341 341 349 343 330 327 324 314 302 299
293 301 300 299 298 298 282 282 269 255 257 250 261 284 297 305 310 315 321 327 329 321 324 327 329 339 343 348 347 346 347 349 346 344 345 352 357 350 347 352 5 38 58 70
301 296 288 295 297 293 283 270 260 253 245 249 265 284 294 301 306 316 323 328 330 328 324 328 335 349 351 346 349 348 353 355 350 354 358 2 7 13 39 56 66 76 81 79
318 314 304 300 305 304 282 260 246 236 239 248 268 285 292 294 308 320 323 328 334 332 329 328 334 348 348 350 354 351 357 3 2 7 15 29 36 45 70 75 73 78 80 72
330 334 325 314 308 304 289 268 249 238 242 256 276 286 293 292 310 320 327 332 334 336 333 334 348 357 353 355 355 355 4 8 10 19 35 50 62 77 85 88 82 78 73 76
327 331 325 320 308 295 294 284 241 234 248 275 282 287 283 290 310 325 332 335 337 338 341 342 351 351 359 358 356 4 12 14 19 28 44 56 72 83 92 89 88 93 92 91
332 326 332 319 322 289 261 261 240 241 259 272 279 282 282 287 307 321 333 340 341 341 343 350 360 357 2 357 0 11 19 18 25 35 52 72 83 88 92 99 100 98 95 90
328 324 331 322 290 280 262 246 242 251 264 271 283 285 286 275 299 318 334 338 342 342 344 350 358 2 1 355 10 12 27 27 30 38 50 70 88 90 94 99 98 94 94 97
315 324 325 328 314 278 244 221 231 250 258 270 286 298 286 278 297 317 326 334 343 345 351 358 360 9 354 358 14 14 23 33 36 41 55 64 77 91 99 100 101 95 95 101
310 315 321 317 313 275 234 220 227 243 253 266 287 286 278 284 292 310 320 327 340 344 349 353 2 1 350 4 17 21 25 37 40 41 50 66 76 79 82 91 96 100 103 104
308 308 312 308 304 275 235 228 230 241 248 261 269 276 280 266 284 308 323 322 338 344 346 350 353 352 354 17 21 22 23 36 46 48 47 48 55 63 68 81 91 99 103 106
299 301 305 299 291 266 239 232 231 240 246 253 258 273 276 263 274 294 316 327 334 339 344 348 352 355 8 20 24 21 27 36 42 48 53 57 62 72 79 85 91 96 101 104
297 298 297 304 289 281 256 241 233 235 240 245 252 274 278 255 256 280 305 320 330 334 343 347 353 358 1 10 24 31 27 38 44 49 54 58 64 70 78 84 87 94 102 103
293 296 292 296 288 282 264 244 234 235 235 238 243 254 284 248 260 281 301 315 326 332 340 349 353 1 8 12 20 30 27 35 45 50 51 55 63 73 77 80 84 88 96 99
294 295 289 291 285 263 259 246 234 231 232 235 240 236 255 242 256 274 293 311 319 326 336 352 355 358 5 10 7 15 25 34 42 51 52 53 59 70 81 85 86 85 92 98
Wind_Speed_850mb
19 17 16 23 29 23 35 42 23 44 39 40 35 36 40 23 17 19 28 32 38 44 52 56 58 58 58 57 58 59 63 66 70 72 72 75 74 71 69 67 67 69 72 72
10 2 8 22 34 36 43 46 46 52 52 41 28 6 12 11 18 26 30 35 41 50 54 56 58 59 58 58 60 62 65 68 74 80 79 79 80 75 74 72 69 70 72 70
9 3 14 23 36 29 22 26 24 27 22 11 12 19 24 25 24 27 31 37 47 50 51 53 56 57 59 60 65 67 73 75 80 75 77 87 90 79 73 72 67 67 65 65
9 16 13 7 12 11 20 27 23 34 35 31 30 25 28 25 23 25 33 44 48 48 50 52 53 54 57 67 67 73 80 78 80 80 91 95 92 93 75 83 63 63 60 60
7 9 30 25 7 1 4 15 17 28 29 28 19 16 31 12 11 24 36 42 45 46 49 51 53 55 66 70 72 71 80 76 87 86 97 96 92 100 79 59 62 53 56 56
3 8 11 11 8 6 4 19 8 11 22 28 9 21 21 5 24 35 38 41 45 47 48 49 53 57 61 67 78 74 75 89 91 94 86 91 91 74 70 61 60 61 53 52
18 12 18 19 9 7 7 18 11 15 26 16 17 24 28 26 31 34 39 42 43 42 45 48 53 55 65 68 74 78 86 91 91 87 85 87 73 64 56 57 48 46 47 44
9 12 17 21 19 10 24 20 18 20 22 24 27 28 27 28 30 34 37 39 38 42 45 51 51 59 63 75 77 82 87 90 85 80 85 78 63 56 48 46 45 42 41 45
20 11 8 27 35 35 31 39 42 33 31 26 26 25 24 30 31 33 35 37 38 41 49 50 50 58 65 70 85 87 89 90 82 81 78 73 67 61 49 45 44 43 43 45
11 17 38 46 41 48 44 47 45 38 32 26 25 21 23 25 28 30 33 37 39 44 47 51 53 58 64 78 77 89 91 85 89 86 78 72 69 61 51 49 47 43 43 46
43 41 48 46 32 40 47 40 41 37 29 25 23 21 21 23 25 28 32 34 40 44 48 53 54 64 62 75 78 81 83 88 85 84 81 75 67 68 53 43 41 49 53 59
31 51 54 63 62 56 54 45 39 34 25 26 26 23 24 22 24 27 31 37 40 43 47 51 56 62 68 76 81 80 87 88 87 81 78 78 72 61 49 39 38 41 47 53
64 66 72 73 67 55 49 50 39 35 29 24 24 24 25 26 24 29 31 35 40 43 44 44 54 62 69 77 77 79 82 78 77 76 75 70 64 55 48 43 36 35 35 28
54 59 66 57 55 50 41 35 31 32 31 28 25 25 26 25 26 25 30 36 42 40 41 43 49 59 71 76 72 80 77 72 72 68 62 54 55 43 34 39 50 52 27 29
36 41 52 59 53 47 38 30 36 34 28 27 25 23 22 25 23 26 30 38 40 37 35 41 48 64 70 68 70 78 73 72 67 58 51 41 37 36 39 47 50 53 45 49
38 35 37 38 39 33 26 27 28 25 27 25 23 20 22 22 22 27 30 32 37 40 39 42 49 57 64 69 71 74 70 67 60 52 49 40 34 34 38 43 43 49 53 49
43 42 31 30 31 26 22 21 23 21 24 24 19 22 23 18 22 24 28 31 33 36 36 34 44 55 60 63 65 65 63 65 57 50 47 46 41 41 47 48 50 51 47 43
36 44 39 34 25 14 19 20 22 24 22 21 23 23 19 18 21 25 30 33 33 34 31 36 43 51 56 59 58 57 56 56 53 48 43 40 41 42 45 47 48 53 55 52
38 43 47 37 22 11 9 14 20 19 22 24 23 20 18 18 18 23 27 29 31 37 40 38 38 50 51 54 51 52 54 51 51 42 40 38 36 41 43 47 53 52 51 48
45 41 44 36 33 23 18 16 20 23 24 21 21 19 19 16 16 19 22 22 26 37 37 37 32 44 48 46 43 46 49 45 44 42 39 38 39 43 42 44 48 46 45 44
44 46 45 43 34 35 24 22 23 24 22 19 17 16 15 13 13 17 18 19 29 36 35 34 27 44 41 41 43 41 44 46 40 39 37 38 41 39 41 42 41 39 40 42
47 46 49 46 36 27 28 28 26 25 23 17 13 11 14 14 14 15 16 24 30 34 34 34 30 33 32 35 39 35 36 39 39 33 36 32 32 32 32 31 35 39 42 44
46 50 52 46 42 32 35 36 31 28 24 18 14 11 16 14 13 16 14 21 28 31 31 31 28 26 24 27 33 36 28 32 35 34 34 29 27 26 26 27 29 32 36 39
43 52 53 43 40 36 45 45 37 30 24 22 19 16 18 14 11 16 17 22 26 28 26 27 27 23 19 24 25 31 30 26 27 27 28 30 30 30 29 30 31 30 31 32
45 48 50 45 43 42 42 47 39 33 29 27 24 19 24 22 13 15 18 20 23 26 23 22 22 21 17 15 18 21 28 27 25 26 22 22 25 28 27 28 26 24 25 28
49 50 50 46 44 41 37 48 51 40 32 30 25 19 22 20 13 16 18 19 20 21 19 19 20 20 16 13 14 17 19 23 25 23 23 22 18 20 21 20 22 23 20 20
54 51 47 48 41 31 28 41 53 49 38 32 24 18 18 21 16 16 17 17 17 16 15 14 15 15 15 12 11 11 12 14 17 20 19 18 17 18 17 16 17 18 16 17
Wind_Direction_850mb
271 274 257 264 260 226 225 239 252 270 282 285 302 313 307 301 278 273 287 298 305 308 312 312 312 312 311 310 311 312 309 309 308 306 304 302 298 295 292 287 282 279 277 271
283 212 255 269 269 250 245 256 263 266 278 287 292 317 313 294 288 290 297 307 310 314 315 314 313 313 311 310 310 310 309 308 308 304 304 304 303 297 292 287 284 281 275 270
278 317 291 267 254 248 232 235 250 255 286 348 291 309 298 301 292 295 303 310 315 314 312 311 312 311 310 309 309 309 310 308 308 309 306 308 307 299 296 289 285 280 274 267
285 305 263 17 263 262 267 265 248 261 278 292 299 297 286 283 282 299 310 315 314 312 311 311 312 311 311 314 312 307 309 308 312 310 312 310 304 303 285 289 287 278 273 267
272 253 298 284 95 153 242 303 283 250 271 292 305 303 292 227 271 308 312 312 311 311 311 312 313 313 313 315 313 308 311 312 311 313 313 310 308 306 294 281 288 280 272 266
211 256 270 17 99 133 178 290 98 202 309 310 276 290 323 307 307 311 314 314 313 314 313 313 313 314 313 311 315 315 317 320 317 319 315 317 316 305 305 296 288 280 277 270
232 258 273 271 183 159 263 331 345 321 319 282 259 289 302 302 306 309 312 313 314 313 310 309 315 316 314 316 319 322 322 323 320 323 321 321 315 309 301 289 292 281 276 270
201 219 271 158 145 218 316 302 296 292 287 264 261 280 286 295 304 309 310 314 314 313 311 317 318 318 319 321 326 324 324 321 325 328 328 324 318 309 305 292 287 283 276 273
207 225 349 205 264 285 285 288 292 289 291 261 266 272 285 300 307 308 312 313 315 314 316 318 321 321 321 321 330 326 327 323 330 332 332 330 319 314 297 289 282 282 281 278
295 234 268 279 279 281 286 281 291 283 277 260 260 262 279 296 304 308 314 317 321 318 318 320 323 323 326 333 325 333 326 330 333 332 330 328 328 320 303 289 284 284 283 282
271 281 272 276 292 304 305 300 295 286 266 251 251 268 284 299 307 313 316 320 320 319 319 319 325 329 329 335 332 334 335 335 334 334 329 328 326 322 318 299 293 286 282 282
269 301 313 303 308 306 297 294 291 274 255 260 267 277 295 304 311 316 317 318 319 320 319 321 330 329 331 337 339 340 336 333 336 332 334 333 326 324 328 311 296 295 286 281
284 300 299 300 298 295 283 285 277 269 257 254 267 283 299 307 312 314 319 321 322 320 320 325 325 332 343 340 342 344 340 341 337 341 341 341 349 343 330 327 324 314 302 299
293 301 300 299 298 298 282 282 269 255 257 250 261 284 297 305 310 315 321 327 329 321 324 327 329 339 343 348 347 346 347 349 346 344 345 352 357 350 347 352 5 38 58 70
301 296 288 295 297 293 283 270 260 253 245 249 265 284 294 301 306 316 323 328 330 328 324 328 335 349 351 346 349 348 353 355 350 354 358 2 7 13 39 56 66 76 81 79
318 314 304 300 305 304 282 260 246 236 239 248 268 285 292 294 308 320 323 328 334 332 329 328 334 348 348 350 354 351 357 3 2 7 15 29 36 45 70 75 73 78 80 72
330 334 325 314 308 304 289 268 249 238 242 256 276 286 293 292 310 320 327 332 334 336 333 334 348 357 353 355 355 355 4 8 10 19 35 50 62 77 85 88 82 78 73 76
327 331 325 320 308 295 294 284 241 234 248 275 282 287 283 290 310 325 332 335 337 338 341 342 351 351 359 358 356 4 12 14 19 28 44 56 72 83 92 89 88 93 92 91
332 326 332 319 322 289 261 261 240 241 259 272 279 282 282 287 307 321 333 340 341 341 343 350 360 357 2 357 0 11 19 18 25 35 52 72 83 88 92 99 100 98 95 90
328 324 331 322 290 280 262 246 242 251 264 271 283 285 286 275 299 318 334 338 342 342 344 350 358 2 1 355 10 12 27 27 30 38 50 70 88 90 94 99 98 94 94 97
315 324 325 328 314 278 244 221 231 250 258 270 286 298 286 278 297 317 326 334 343 345 351 358 360 9 354 358 14 14 23 33 36 41 55 64 77 91 99 100 101 95 95 101
310 315 321 317 313 275 234 220 227 243 253 266 287 286 278 284 292 310 320 327 340 344 349 353 2 1 350 4 17 21 25 37 40 41 50 66 76 79 82 91 96 100 103 104
308 308 312 308 304 275 235 228 230 241 248 261 269 276 280 266 284 308 323 322 338 344 346 350 353 352 354 17 21 22 23 36 46 48 47 48 55 63 68 81 91 99 103 106
299 301 305 299 291 266 239 232 231 240 246 253 258 273 276 263 274 294 316 327 334 339 344 348 352 355 8 20 24 21 27 36 42 48 53 57 62 72 79 85 91 96 101 104
297 298 297 304 289 281 256 241 233 235 240 245 252 274 278 255 256 280 305 320 330 334 343 347 353 358 1 10 24 31 27 38 44 49 54 58 64 70 78 84 87 94 102 103
293 296 292 296 288 282 264 244 234 235 235 238 243 254 284 248 260 281 301 315 326 332 340 349 353 1 8 12 20 30 27 35 45 50 51 55 63 73 77 80 84 88 96 99
294 295 289 291 285 263 259 246 234 231 232 235 240 236 255 242 256 274 293 311 319 326 336 352 355 358 5 10 7 15 25 34 42 51 52 53 59 70 81 85 86 85 92 98